Previsão horária em Abazivka

Hoje, 24 Janeiro, Domingo

Tempo Temperatura Precipitação Vento Pressão Humidade
00:00 +2°C° 0 mm 5 m/s 746 mmHg 96%
01:00 +2°C° 0 mm 6 m/s 746 mmHg 95%
02:00 +2°C° 0 mm 6 m/s 746 mmHg 95%
03:00 +2°C° 0 mm 5 m/s 746 mmHg 94%
04:00 +1°C° 0 mm 5 m/s 746 mmHg 93%
05:00 +1°C° 0 mm 5 m/s 746 mmHg 93%
06:00 +1°C° 0 mm 5 m/s 746 mmHg 91%
07:00 +1°C° 0 mm 5 m/s 746 mmHg 90%
08:00 +1°C° 0 mm 6 m/s 746 mmHg 89%
09:00 +2°C° 0 mm 6 m/s 746 mmHg 87%
10:00 +2°C° 0 mm 7 m/s 746 mmHg 84%
11:00 +3°C° 0 mm 7 m/s 746 mmHg 82%
12:00 +3°C° 0 mm 7 m/s 745 mmHg 80%
13:00 +3°C° 0 mm 7 m/s 745 mmHg 79%
14:00 +4°C° 0 mm 8 m/s 744 mmHg 78%
15:00 +3°C° 0 mm 7 m/s 744 mmHg 78%
16:00 +2°C° 0 mm 7 m/s 744 mmHg 79%
17:00 +2°C° 0 mm 7 m/s 744 mmHg 80%
18:00 +2°C° 0.3 mm 7 m/s 744 mmHg 82%
19:00 0°C° 0.3 mm 7 m/s 744 mmHg 84%
20:00 0°C° 0.3 mm 7 m/s 744 mmHg 87%
21:00 0°C° 0 mm 7 m/s 744 mmHg 89%
22:00 0°C° 0 mm 7 m/s 744 mmHg 91%
23:00 +2°C° 0 mm 6 m/s 744 mmHg 93%

Amanhã, 25 Janeiro, Segunda-feira

Tempo Temperatura Precipitação Vento Pressão Humidade
00:00 +2°C° 0 mm 6 m/s 743 mmHg 93%
01:00 +2°C° 0 mm 6 m/s 743 mmHg 94%
02:00 +2°C° 0 mm 6 m/s 743 mmHg 95%
03:00 +2°C° 0 mm 6 m/s 743 mmHg 94%
04:00 +3°C° 0 mm 6 m/s 743 mmHg 94%
05:00 +3°C° 0 mm 6 m/s 743 mmHg 93%
06:00 +3°C° 0 mm 6 m/s 743 mmHg 93%
07:00 +3°C° 0 mm 6 m/s 743 mmHg 93%
08:00 +3°C° 0 mm 6 m/s 744 mmHg 92%
09:00 +4°C° 0 mm 6 m/s 744 mmHg 91%
10:00 +5°C° 0 mm 5 m/s 744 mmHg 90%
11:00 +5°C° 0 mm 5 m/s 744 mmHg 89%
12:00 +6°C° 0 mm 5 m/s 743 mmHg 87%
13:00 +6°C° 0 mm 5 m/s 743 mmHg 85%
14:00 +7°C° 0 mm 5 m/s 742 mmHg 83%
15:00 +5°C° 0.1 mm 6 m/s 742 mmHg 85%
16:00 +5°C° 0.1 mm 6 m/s 742 mmHg 87%
17:00 +5°C° 0.1 mm 7 m/s 742 mmHg 88%
18:00 +5°C° 0.2 mm 7 m/s 741 mmHg 85%
19:00 +4°C° 0.2 mm 8 m/s 741 mmHg 82%
20:00 +3°C° 0.2 mm 9 m/s 740 mmHg 79%
21:00 +3°C° 0.2 mm 9 m/s 740 mmHg 79%
22:00 +3°C° 0.2 mm 10 m/s 739 mmHg 80%
23:00 +3°C° 0.2 mm 10 m/s 738 mmHg 80%

Depois de amanhã, 26 Janeiro, Terça-feira

Tempo Temperatura Precipitação Vento Pressão Humidade
00:00 +3°C° 1 mm 10 m/s 738 mmHg 83%
01:00 +3°C° 1 mm 10 m/s 737 mmHg 86%
02:00 +3°C° 1 mm 9 m/s 737 mmHg 89%
03:00 +3°C° 1.1 mm 9 m/s 736 mmHg 89%
04:00 +4°C° 1.1 mm 8 m/s 736 mmHg 89%
05:00 +3°C° 1.1 mm 7 m/s 736 mmHg 89%
06:00 +3°C° 0 mm 7 m/s 736 mmHg 83%
07:00 +1°C° 0 mm 8 m/s 736 mmHg 78%
08:00 +1°C° 0 mm 8 m/s 736 mmHg 73%
09:00 +1°C° 0 mm 8 m/s 736 mmHg 72%
10:00 +1°C° 0 mm 9 m/s 736 mmHg 71%
11:00 +2°C° 0 mm 9 m/s 736 mmHg 70%
12:00 +1°C° 0 mm 10 m/s 736 mmHg 67%
13:00 +1°C° 0 mm 10 m/s 736 mmHg 65%
14:00 +1°C° 0 mm 11 m/s 736 mmHg 62%
15:00 -1°C° 0.1 mm 11 m/s 736 mmHg 68%
16:00 -2°C° 0.1 mm 11 m/s 737 mmHg 75%
17:00 -3°C° 0.1 mm 11 m/s 737 mmHg 81%
18:00 -3°C° 0.1 mm 10 m/s 738 mmHg 78%
19:00 -4°C° 0.1 mm 10 m/s 739 mmHg 74%
20:00 -4°C° 0.1 mm 10 m/s 739 mmHg 70%
21:00 -4°C° 0 mm 10 m/s 740 mmHg 71%
22:00 -4°C° 0 mm 9 m/s 740 mmHg 71%
23:00 -4°C° 0 mm 9 m/s 741 mmHg 72%

27 Janeiro, Quarta-feira

Tempo Temperatura Precipitação Vento Pressão Humidade
00:00 -4°C° 0 mm 9 m/s 741 mmHg 72%
01:00 -4°C° 0 mm 8 m/s 742 mmHg 71%
02:00 -4°C° 0 mm 8 m/s 742 mmHg 71%
03:00 -4°C° 0 mm 8 m/s 742 mmHg 71%
04:00 -5°C° 0 mm 8 m/s 743 mmHg 71%
05:00 -4°C° 0 mm 7 m/s 743 mmHg 71%
06:00 -4°C° 0 mm 7 m/s 743 mmHg 71%
07:00 -4°C° 0 mm 7 m/s 744 mmHg 71%
08:00 -4°C° 0 mm 7 m/s 744 mmHg 71%
09:00 -3°C° 0 mm 7 m/s 744 mmHg 68%
10:00 -3°C° 0 mm 7 m/s 745 mmHg 65%
11:00 -2°C° 0 mm 7 m/s 745 mmHg 63%
12:00 -1°C° 0 mm 6 m/s 745 mmHg 61%
13:00 -1°C° 0 mm 6 m/s 745 mmHg 60%
14:00 -1°C° 0 mm 6 m/s 745 mmHg 59%
15:00 -1°C° 0 mm 5 m/s 745 mmHg 64%
16:00 -1°C° 0 mm 4 m/s 745 mmHg 68%
17:00 -1°C° 0 mm 3 m/s 745 mmHg 73%
18:00 -2°C° 0 mm 2 m/s 745 mmHg 75%
19:00 -2°C° 0 mm 2 m/s 746 mmHg 77%
20:00 -2°C° 0 mm 2 m/s 746 mmHg 78%
21:00 -2°C° 0 mm 2 m/s 746 mmHg 79%
22:00 -2°C° 0 mm 2 m/s 746 mmHg 79%
23:00 -2°C° 0 mm 2 m/s 746 mmHg 80%

28 Janeiro, Quinta-feira

Tempo Temperatura Precipitação Vento Pressão Humidade
00:00 0°C° 0 mm 1 m/s 745 mmHg 80%
01:00 -1°C° 0 mm 1 m/s 745 mmHg 81%
02:00 -1°C° 0 mm 1 m/s 745 mmHg 81%
03:00 -1°C° 0 mm 1 m/s 745 mmHg 82%
04:00 -3°C° 0 mm 2 m/s 745 mmHg 84%
05:00 -3°C° 0 mm 2 m/s 744 mmHg 85%
06:00 -3°C° 0 mm 2 m/s 745 mmHg 86%
07:00 -3°C° 0 mm 2 m/s 745 mmHg 87%
08:00 -3°C° 0 mm 2 m/s 745 mmHg 87%
09:00 -2°C° 0 mm 2 m/s 745 mmHg 83%
10:00 -2°C° 0 mm 2 m/s 745 mmHg 78%
11:00 -1°C° 0 mm 3 m/s 744 mmHg 74%
12:00 -1°C° 0 mm 3 m/s 744 mmHg 73%
13:00 -1°C° 0 mm 3 m/s 744 mmHg 72%
14:00 -1°C° 0 mm 3 m/s 743 mmHg 71%
15:00 -1°C° 0 mm 3 m/s 743 mmHg 74%
16:00 -2°C° 0 mm 2 m/s 744 mmHg 77%
17:00 -2°C° 0 mm 2 m/s 744 mmHg 80%
18:00 -2°C° 0 mm 2 m/s 744 mmHg 81%
19:00 -2°C° 0 mm 2 m/s 744 mmHg 82%
20:00 -3°C° 0 mm 2 m/s 744 mmHg 82%

29 Janeiro, Sexta-feira

Tempo Temperatura Precipitação Vento Pressão Humidade
Mostrar mais